Location: Namasale
(1.5000°N, 32.6167°E)
Time: 21:57:03
(UTC+00:00)

Tiros 1 - Pass Details

Date: 27 April 2021
Orbit: 630 x 664 km, 48.4° (Epoch: 06 May)

Event Time Altitude Azimuth Distance (km) Brightness Sun altitude
Exits shadow 02:36:54 17° 304° (NW) 1,662 8.9 -16.7°
Maximum altitude 02:37:16 17° 310° (NW) 1,654 8.9 -16.6°
Drops below altitude 10° 02:40:17 10° 350° (N) 2,045 9.8 -15.9°
Sets 02:43:22 0° 11° (N) 2,945 10.9 -15.1°
